Regional Weather Roundup
Issued by NWS

Home | Current Version | Previous Version | Text Only | Print | Product List | Glossary On
Versions: 1 2 3 4 5 6 7 8 9 10 11 12 13 14 15 16 17 18 19 20 21 22 23 24 25 26 27 28 29 30 31 32 33 34 35 36 37 38 39 40 41 42 43 44 45 46 47 48 49 50
000
ASUS43 KDTX 250510
RWRMI
MICHIGAN HOURLY REGIONAL WEATHER ROUNDUP
NATIONAL WEATHER SERVICE DETROIT/PONTIAC MI
1200 AM EST SAT FEB 25 2017

NOTE: "FAIR" INDICATES FEW OR NO CLOUDS BELOW 12,000 FEET WITH NO
SIGNIFICANT WEATHER AND/OR OBSTRUCTION TO VISIBILITY.

MIZ047>049-052>055-059>063-066>070-074>076-081>083-250600-
SOUTHEAST LOWER MICHIGAN

CITY           SKY/WX    TMP DP  RH WIND       PRES   REMARKS
ADRIAN         CLOUDY    47  43  86 W17G29    29.52R
ALMA           CLOUDY    43  40  89 SW14G24   29.46R
ANN ARBOR      CLOUDY    51  48  89 W13       29.45S
BAD AXE        LGT RAIN  46  46  98 SW8       29.42R
CARO           CLOUDY    40  40 100 SW7       29.42R
DETROIT CITY   CLOUDY    55  54  96 SW6       29.43F
DETROIT        CLOUDY    56  51  84 SW18G24   29.45R
FLINT          CLOUDY    49  47  93 W12       29.45R
GROSSE ILE     CLOUDY    55  53  93 SW7       29.44S
HILLSDALE      CLOUDY    41  37  87 W20G25    29.52R
HOWELL         CLOUDY    47  43  85 W20       29.43F

CITY           SKY/WX    TMP DP  RH WIND       PRES   REMARKS
JACKSON        CLOUDY    42  38  85 W20G31    29.51R
LAMBERTVILLE   CLOUDY    54  49  82 W14       29.49R
LANSING        CLOUDY    42  37  82 SW21G31   29.49R
LAPEER         CLOUDY    50  48  95 W8        29.44R
MASON          CLOUDY    43  39  87 W13G23    29.49S
MONROE         CLOUDY    56  52  89 W14       29.45S
MT. CLEMENS    CLOUDY    55  55 100 S8        29.41S
PONTIAC        CLOUDY    54  50  86 W17       29.42F
PORT HOPE        N/A     48  48 100 SW5       29.37R
PORT HURON     RAIN      54  52  94 S12       29.44S
TRI CITIES     CLOUDY    40  40 100 SW9       29.43S FOG     WCI  34
MIDLAND        CLOUDY    38  37  96 S3        29.42S FOG
TROY           CLOUDY    57  54  91 SW5       29.44R
SAGINAW HB     CLOUDY    39  37  93 SW5       29.43S FOG
$$
MIZ043>046-050>051-056>058-064>065-071>073-077>080-250600-
SOUTHWEST LOWER MICHIGAN

CITY           SKY/WX    TMP DP  RH WIND       PRES   REMARKS
BATTLE CREEK   CLOUDY    39  36  89 W16G24    29.52F WCI  30
BENTON HARBOR  CLOUDY    36  33  89 NW6       29.57S WCI  31
BIG RAPIDS     CLOUDY    38  37  97 SW8G16    29.41F FOG     WCI  32
COLDWATER      CLOUDY    41  38  89 W14       29.54R
FREMONT        CLOUDY    36  36 100 SW13      29.45S WCI  27
HOLLAND        CLOUDY    34  33  96 W15       29.53S WCI  24
GRAND RAPIDS   CLOUDY    38  35  89 SW20G28   29.49S WCI  28
IONIA          CLOUDY    39  36  89 SW23G29   29.47S WCI  29
KALAMAZOO      CLOUDY    39  34  82 W14G20    29.54F WCI  31
LUDINGTON      FOG       34  34 100 NW6       29.44F VSB 1   WCI  29
MARSHALL       CLOUDY    40  37  87 W21G30    29.52R WCI  30
MOUNT PLEASANT CLOUDY    38  38  99 CALM      29.40F FOG
MUSKEGON       CLOUDY    37  36  96 W10       29.49F FOG     WCI  30
SOUTH HAVEN    CLOUDY    34  34  99 W10       29.56R WCI  26
$$
MIZ016>042-250600-
NORTHERN LOWER MICHIGAN

CITY           SKY/WX    TMP DP  RH WIND       PRES   REMARKS
ALPENA         CLOUDY    34  34 100 NE9       29.42F FOG     WCI  27
BEAVER ISLAND  CLOUDY    25  25  98 NE10      29.46F FOG     WCI  15
BELLAIRE       CLOUDY    32  32  99 CALM      29.43S FOG
CADILLAC       LGT RAIN  32  32  99 CALM      29.38F
CHARLEVOIX     CLOUDY    31  31 100 NE13      29.45F FOG     WCI  22
FRANKFORT      CLOUDY    32  32  99 N8        29.45S FOG     WCI  25
GAYLORD        CLOUDY    33  29  85 E6        29.41R FOG     WCI  28
GRAYLING       CLOUDY    33  32  96 E7        29.43R FOG     WCI  27
HARBOR SPRINGS CLOUDY    31  29  94 E13       29.42F WCI  21
HOUGHTON LAKE  CLOUDY    33  31  92 NE5       29.39S FOG     WCI  29
MANISTEE       MIX PCPN  34  32  93 NW7       29.44F FOG     WCI  28
OSCODA         MIX PCPN  36  35  96 NW7       29.38F WCI  30
PELLSTON       LGT SNOW  30  27  88 NE7       29.46S FOG     WCI  23
ROGERS CITY    CLOUDY    32  31  97 NE5       29.44F FOG     WCI  28
TRAVERSE CITY  CLOUDY    34  32  92 N5        29.41F FOG     WCI  30
$$
MIZ007>008-015-250600-
EASTERN UPPER MICHIGAN

CITY           SKY/WX    TMP DP  RH WIND       PRES   REMARKS
KINROSS        MIX PCPN  22  21  96 NE15      29.47F FOG     WCI   9
MACKINAC ISLAN CLOUDY    26  26 100 NE13G20   29.44F FOG     WCI  15
NEWBERRY       CLOUDY    19  18  96 N12       29.50F WCI   7
S. S. MARIE    CLOUDY    23  17  78 NE7       29.48F WCI  15
MUNISING         N/A     26  23  88 N16       29.57S WCI  14
$$
MIZ004>006-011>014-085-250600-
CENTRAL UPPER MICHIGAN

CITY           SKY/WX    TMP DP  RH WIND       PRES   REMARKS
MANISTIQUE     CLOUDY    23  23  98 N12       29.51F FOG     WCI  12
ESCANABA       MIX PCPN  26  24  92 N9        29.55F FOG     WCI  17
MENOMINEE      MIX PCPN  21  19  93 N14       29.56F WCI   8
SAWYER-GWINN   LGT SNOW  22  20  92 N15       29.58R WCI   9
$$
MIZ001>003-009>011-084-250600-
WESTERN UPPER MICHIGAN

CITY           SKY/WX    TMP DP  RH WIND       PRES   REMARKS
IRON MOUNTAIN  LGT SNOW  20  14  77 NW20      29.58F WCI   4
HOUGHTON       LGT SNOW  19  13  77 N13       29.68S VSB 1   WCI   6
COPPER HARBOR    N/A     23  19  85 NE24      29.68F WCI   7
IRONWOOD       LGT SNOW  16  14  93 N8G17     29.75F VSB 1   WCI   5
$$

ABBREVIATIONS USED IN REMARKS
   TC - TEMPERATURE IN CELSIUS
  WCI - WIND CHILL INDEX
   HX - HEAT INDEX
  VSB - VISIBILITY





USA.gov is the U.S. government's official web portal to all federal, state and local government web resources and services.